sat.trackr.live / text

‹ back to catalog

STARLINK-11357 [DTC]

NORAD 61541 · 2024-184K

PAYLOAD ACTIVE UNKNOWN

§ Identity

Operator
Country
US
Launch date
2024-10-15
Launch site
AFWTR
Launch vehicle
Mass (kg)
RCS (m²)

Purposes: comms

External: N2YO · Heavens-Above · Gunter

§ Orbital elements

Epoch: 2026-05-25T05:22:23.347776Z

Period
91.74 min
Inclination
53.1590°
Eccentricity
0.0000709
Mean motion
15.69705182 rev/d
Perigee alt
359.3 km
Apogee alt
360.2 km
Semi-major
6,737.9 km
B*
1.9006e-5
RAAN
219.2867°
Arg perigee
79.1574°
Mean anomaly
280.9523°
Rev number
9,243

§ Raw data

STARLINK-11357 [DTC]1 61541U 24184K   26145.22388134  .00001715  00000+0  19006-4 0  99982 61541  53.1590 219.2867 0000709  79.1574 280.9523 15.69705182 92437

JSON: /api/v1/satellites/61541 · /tle

For live sub-satellite position, see the globe view (requires WebGL).

§ Visibility from observer

Set your observer location to see the next 7 days of passes ≥ 10°. The values pass through the URL so the page stays shareable.

No JS? Fill the form by hand. The geolocation button needs JavaScript.